TimeEDT,TemperatureF,Dew PointF,Humidity,Sea Level PressureIn,VisibilityMPH,Wind Direction,Wind SpeedMPH,Gust SpeedMPH,PrecipitationIn,Events,Conditions,WindDirDegrees,DateUTC
12:52 AM,51.1,27.0,39,30.25,10.0,SSE,3.5,-,N/A,,Clear,150,2013-04-29 04:52:00
1:52 AM,50.0,26.1,39,30.25,10.0,Calm,Calm,-,N/A,,Clear,0,2013-04-29 05:52:00
2:52 AM,46.0,30.9,56,30.23,10.0,Calm,Calm,-,N/A,,Clear,0,2013-04-29 06:52:00
3:52 AM,45.0,33.1,63,30.23,10.0,Calm,Calm,-,N/A,,Clear,0,2013-04-29 07:52:00
4:52 AM,43.0,35.1,74,30.24,10.0,Calm,Calm,-,N/A,,Clear,0,2013-04-29 08:52:00
5:52 AM,43.0,35.1,74,30.25,10.0,Calm,Calm,-,N/A,,Clear,0,2013-04-29 09:52:00
6:52 AM,44.1,36.0,73,30.26,10.0,Calm,Calm,-,N/A,,Clear,0,2013-04-29 10:52:00
7:52 AM,48.0,37.9,68,30.27,10.0,Calm,Calm,-,N/A,,Clear,0,2013-04-29 11:52:00
8:52 AM,52.0,42.1,69,30.27,10.0,South,4.6,-,N/A,,Clear,190,2013-04-29 12:52:00
9:52 AM,57.9,43.0,58,30.25,10.0,South,9.2,-,N/A,,Clear,170,2013-04-29 13:52:00
10:52 AM,60.1,42.1,51,30.25,10.0,South,9.2,-,N/A,,Clear,190,2013-04-29 14:52:00
11:52 AM,62.1,34.0,35,30.24,10.0,South,9.2,19.6,N/A,,Clear,180,2013-04-29 15:52:00
12:52 PM,63.0,33.1,33,30.22,10.0,South,13.8,-,N/A,,Partly Cloudy,190,2013-04-29 16:52:00
1:52 PM,66.0,33.1,29,30.20,10.0,South,8.1,-,N/A,,Overcast,170,2013-04-29 17:52:00
2:52 PM,66.0,36.0,33,30.19,10.0,South,12.7,-,N/A,,Overcast,180,2013-04-29 18:52:00
3:52 PM,63.0,35.1,35,30.20,10.0,SW,12.7,18.4,N/A,,Overcast,230,2013-04-29 19:52:00
4:52 PM,62.1,32.0,32,30.20,10.0,SSW,12.7,18.4,N/A,,Overcast,200,2013-04-29 20:52:00
5:52 PM,61.0,33.1,35,30.21,10.0,SSW,6.9,-,N/A,,Overcast,210,2013-04-29 21:52:00
6:52 PM,59.0,32.0,36,30.22,10.0,SW,6.9,-,0.00,,Overcast,220,2013-04-29 22:52:00
7:52 PM,57.0,25.0,29,30.23,10.0,South,4.6,-,N/A,,Overcast,190,2013-04-29 23:52:00
8:52 PM,55.9,26.1,32,30.25,10.0,South,3.5,-,N/A,,Overcast,180,2013-04-30 00:52:00
9:52 PM,54.0,30.9,41,30.26,10.0,Calm,Calm,-,N/A,,Overcast,0,2013-04-30 01:52:00
10:52 PM,53.1,28.9,40,30.25,10.0,SSW,3.5,-,N/A,,Overcast,200,2013-04-30 02:52:00
11:52 PM,53.1,28.0,38,30.26,10.0,Calm,Calm,-,N/A,,Overcast,0,2013-04-30 03:52:00